This is the latest recevied weather packets stored in our database for station/object W1ERB-13. If no packets are shown the sender has not sent any weather packets the latest 10 day(s).
| Time | Temp. | Humidity | Pressure | Rain* | Wind** | Luminosity | Snow |
|---|---|---|---|---|---|---|---|
| 1777996521 | 22.78° C | 55% | 1009.6 hPa | 0 mm | - | 639 W/m² | - |
| 1777996217 | 22.78° C | 55% | 1009.6 hPa | 0 mm | - | 691 W/m² | - |
| 1777995914 | 22.22° C | 55% | 1009.8 hPa | 0 mm | - | 704 W/m² | - |
| 1777995610 | 22.22° C | 57% | 1009.9 hPa | 0 mm | - | 733 W/m² | - |
| 1777995308 | 22.78° C | 55% | 1010.2 hPa | 0 mm | - | 734 W/m² | - |
| 1777995004 | 22.22° C | 57% | 1010.1 hPa | 0 mm | - | 725 W/m² | - |
| 1777994701 | 21.67° C | 57% | 1010.2 hPa | 0 mm | - | 729 W/m² | - |
| 1777994395 | 22.22° C | 56% | 1010.1 hPa | 0 mm | - | 729 W/m² | - |
| 1777994092 | 21.67° C | 58% | 1010.3 hPa | 0 mm | - | 735 W/m² | - |
| 1777993789 | 21.11° C | 58% | 1010.4 hPa | 0 mm | - | 744 W/m² | - |
| 1777993486 | 20.56° C | 58% | 1010.5 hPa | 0 mm | - | 761 W/m² | - |
| 1777993185 | 20.56° C | 60% | 1010.7 hPa | 0 mm | - | 748 W/m² | - |
| 1777992884 | 20° C | 60% | 1010.6 hPa | 0 mm | - | 706 W/m² | - |
| 1777992582 | 20.56° C | 59% | 1010.5 hPa | 0 mm | - | 679 W/m² | - |
| 1777992280 | 21.11° C | 61% | 1009.9 hPa | 0 mm | - | 741 W/m² | - |
| 1777991976 | 20.56° C | 59% | 1009.8 hPa | 0 mm | - | 755 W/m² | - |
| 1777991674 | 20° C | 63% | 1010.1 hPa | 0 mm | - | 776 W/m² | - |
| 1777991371 | 20° C | 63% | 1010.1 hPa | 0 mm | - | 775 W/m² | - |
| 1777991068 | 20° C | 65% | 1010 hPa | 0 mm | - | 768 W/m² | - |
| 1777990766 | 20° C | 66% | 1010.1 hPa | 0 mm | - | 770 W/m² | - |
| 1777990463 | 19.44° C | 66% | 1010 hPa | 0 mm | - | 713 W/m² | - |
| 1777989855 | 18.89° C | 68% | 1010.3 hPa | 0 mm | - | 713 W/m² | - |
| 1777989547 | 18.33° C | 69% | 1010 hPa | 0 mm | - | 699 W/m² | - |
| 1777989244 | 17.78° C | 71% | 1010.2 hPa | 0 mm | - | 655 W/m² | - |
| 1777988940 | 17.22° C | 74% | 1010.3 hPa | 0 mm | - | 401 W/m² | - |
* Rain latest hour (hover to see other rain measurements)
** Current wind speed in m/s (hover to see current wind gust speed)